This is the latest recevied weather packets stored in our database for station/object VK6NP-1. If no packets are shown the sender has not sent any weather packets the latest 10 day(s).
| Time | Temp. | Humidity | Pressure | Rain* | Wind** | Luminosity | Snow |
|---|---|---|---|---|---|---|---|
| 1777609370 | 17.22° C | 53% | 1024.1 hPa | 0 mm | 0 m/s | - | - |
| 1777609067 | 17.22° C | 52% | 1024.1 hPa | 0 mm | 0 m/s | - | - |
| 1777608766 | 17.22° C | 53% | 1024.2 hPa | 0 mm | 0 m/s | - | - |
| 1777608467 | 17.22° C | 52% | 1024.4 hPa | 0 mm | 0 m/s | - | - |
| 1777608164 | 17.22° C | 53% | 1024.3 hPa | 0 mm | 0 m/s | - | - |
| 1777607863 | 17.22° C | 50% | 1024.5 hPa | 0 mm | 0 m/s | - | - |
| 1777607564 | 17.22° C | 51% | 1024.5 hPa | 0 mm | 0 m/s | - | - |
| 1777607261 | 17.22° C | 52% | 1024.6 hPa | 0 mm | 0 m/s | - | - |
| 1777606962 | 17.22° C | 53% | 1024.6 hPa | 0 mm | 0 m/s | - | - |
| 1777606661 | 17.22° C | 54% | 1024.6 hPa | 0 mm | 0 m/s | - | - |
| 1777606359 | 17.22° C | 53% | 1024.7 hPa | 0 mm | 0 m/s | - | - |
| 1777606059 | 17.22° C | 54% | 1024.6 hPa | 0 mm | 0 m/s | - | - |
| 1777605759 | 16.67° C | 55% | 1024.7 hPa | 0 mm | 0 m/s | - | - |
| 1777605456 | 16.67° C | 55% | 1024.8 hPa | 0 mm | 0 m/s | - | - |
| 1777605157 | 16.67° C | 55% | 1025 hPa | 0 mm | 0 m/s | - | - |
| 1777604856 | 16.67° C | 56% | 1025 hPa | 0 mm | 0 m/s | - | - |
| 1777604552 | 16.67° C | 55% | 1025 hPa | 0 mm | 0 m/s | - | - |
| 1777604252 | 16.67° C | 53% | 1024.9 hPa | 0 mm | 0 m/s | - | - |
| 1777603953 | 16.67° C | 55% | 1025 hPa | 0 mm | 0 m/s | - | - |
| 1777603649 | 16.11° C | 57% | 1025 hPa | 0 mm | 0 m/s | - | - |
| 1777603350 | 16.11° C | 58% | 1025 hPa | 0 mm | 0 m/s | - | - |
| 1777603050 | 15.56° C | 58% | 1025.1 hPa | 0 mm | 0 m/s | - | - |
| 1777602747 | 15.56° C | 58% | 1025.2 hPa | 0 mm | 0 m/s | - | - |
| 1777602447 | 15.56° C | 59% | 1025.1 hPa | 0 mm | 0 m/s | - | - |
| 1777602148 | 15.56° C | 60% | 1025.1 hPa | 0 mm | 0 m/s | - | - |
* Rain latest hour (hover to see other rain measurements)
** Current wind speed in m/s (hover to see current wind gust speed)